Regional Weather Roundup
Issued by NWS Wakefield, VA

Home | Current Version | Previous Version | Text Only | Print | Product List | Glossary On
Versions: 1 2 3 4 5 6 7 8 9 10 11 12 13 14 15 16 17 18 19 20 21 22 23 24 25 26 27 28 29 30 31 32 33 34 35 36 37 38 39 40 41 42 43 44 45 46 47 48 49 50
000
ASUS41 KAKQ 280110
RWRAKQ

REGIONAL WEATHER ROUNDUP
NATIONAL WEATHER SERVICE WAKEFIELD VA
900 PM EDT WED AUG 27 2014

Note: "fair" indicates few or no clouds below 12,000 feet with no
significant weather and/or obstructions to visibility. * = Denotes
station may not report precipitation (e.g., rain,snow,etc.),
thunder or fog.

VAZ042-051-052>054-056-280200-
NORTHERN VIRGINIA

CITY           SKY/WX    TMP DP  RH WIND       PRES   REMARKS
WASH NATIONAL  PTCLDY    85  64  49 SW8       29.93R
DULLES         PTCLDY    74  69  85 CALM      29.94R
FORT BELVOIR   CLEAR     73  69  88 CALM      29.94R
QUANTICO       CLEAR     76  71  85 NW6       29.94R
FREDERICKSBRG* CLEAR     76  67  73 CALM      29.93R
STAFFORD*      CLEAR     72  72 100 CALM      29.98R
WARRENTON      CLEAR     72  71  96 CALM      29.94R
CULPEPER*      CLEAR    N/A N/A N/A CALM      29.95R
MANASSAS*      CLEAR     75  73  94 CALM      29.94R
LEESBURG*      PTCLDY    77  73  88 W3        29.95R
WINCHESTER     PTCLDY    77  68  73 CALM      29.96R
$$

VAZ048-049-060>072-079>083-280200-
CENTRAL AND SOUTH CENTRAL VIRGINIA...AND NORTH CENTRAL NORTH CAROLINA

CITY           SKY/WX    TMP DP  RH WIND       PRES   REMARKS
RICHMOND       PTCLDY    78  64  61 CALM      29.95R
CHESTERFIELD*  CLEAR    N/A N/A N/A CALM      29.96R
HANOVER        CLEAR     72  65  78 CALM      29.96R
TAPPAHANNOCK*  CLEAR     71  65  83 CALM      29.95R
CHARLOTTSVILLE CLEAR     76  66  71 CALM      29.96R
ORANGE*        CLEAR     72  66  83 CALM      29.97R
LOUISA*        CLEAR     70  66  88 CALM      29.95R
FARMVILLE*     CLEAR     73  63  68 CALM      29.95S
SOUTH HILL*    CLEAR     70  70 100 CALM      30.02S
ROANOKE RAPIDS CLEAR     70  64  83 CALM      29.96R
RALEIGH        PTCLDY    70  61  73 CALM      29.99R
$$

VAZ088>098-280200-
SOUTHEAST VIRGINIA

CITY           SKY/WX    TMP DP  RH WIND       PRES   REMARKS
NORFOLK        CLEAR     73  67  81 CALM      29.93S
VIRGINIA BEACH CLEAR     72  68  87 SE3       29.92F
NORFOLK NAVAL  PTCLDY    75  65  70 CALM      29.95S
WEST POINT*    CLEAR     75  64  68 CALM      29.95S
NEWPORT NEWS   CLEAR     71  63  75 CALM      29.93S
LANGLEY AFB    CLEAR     70  64  82 NW2       29.93S
FORT EUSTIS    CLEAR     73  60  63 S2        29.92S
WILLIAMSBURG*  CLEAR     73  66  78 CALM      29.95R
FRANKLIN*      CLEAR     70  66  88 CALM      29.95R
WAKEFIELD      CLEAR     71  67  87 CALM      29.95R
$$

VAZ020-022-025-037-045-280200-
WESTERN AND SOUTHWEST VIRGINIA

CITY           SKY/WX    TMP DP  RH WIND       PRES   REMARKS
STAUNTON*      CLEAR     74  67  79 CALM      30.02R
HOT SPRINGS VA CLEAR     69  60  75 W9        30.18R
LYNCHBURG      CLEAR     70  68  93 CALM      30.00F
DANVILLE       CLEAR     70  65  84 CALM      29.99R
MARTINSVILLE   CLEAR     69  69  98 CALM      30.04R
ROANOKE        CLEAR     76  63  64 CALM      30.02S
BLACKSBURG     CLEAR     68  66  94 CALM      30.10R
DUBLIN*        CLEAR     73  64  75 W5        30.10R
MARION*        CLEAR    N/A N/A N/A W5        30.15R
HILLSVILLE*    CLEAR     73  58  59 CALM      30.12S
RICHLANDS*     CLEAR     76  61  60 W3        30.14R
WISE*          CLEAR     72  59  64 CALM      30.16R
ABINGDON*      CLEAR     72  64  78 CALM      30.11R
$$

MDZ021>025-VAZ099-100-280200-
SOUTHERN MARYLAND AND THE DELMARVA PENINSULA

CITY           SKY/WX    TMP DP  RH WIND       PRES   REMARKS
PATUXENT RIVER CLEAR     71  66  84 SW5       29.92S
BAY BRIDGE APT   N/A     79  63  57 S3        29.92R
LEONARDTOWN    CLEAR     73  63  68 CALM      29.94S
DOVER          CLEAR     76  67  73 S3        29.90R
GEORGETOWN     CLEAR     74  65  73 MISG      29.92S
EASTON         CLEAR     77  66  69 CALM      29.95S
CAMBRIDGE      CLEAR     72  64  78 CALM      29.91S
SALISBURY      CLEAR     74  66  76 CALM      29.92S
OCEAN CITY     CLEAR     67  63  87 CALM      29.92S
WALLOPS ISLAND CLEAR     72  67  84 SW3       29.93S
ACCOMACK*      NOT AVBL
$$

NCZ012>017-030>032-280200-
EASTERN NORTH CAROLINA

CITY           SKY/WX    TMP DP  RH WIND       PRES   REMARKS
ELIZABETH CITY CLEAR     73  65  75 CALM      29.94F
AHOSKIE*       CLEAR     67  63  86 CALM      29.95S
EDENTON*       CLEAR     71  67  85 CALM      29.94F
CURRITUCK*     CLEAR     71  66  84 CALM      29.95S
KILL DEVIL HLS CLEAR     72  69  89 N3        29.92F
MANTEO         CLEAR     72  68  87 N8        29.93F
CAPE HATTERAS  CLEAR     74  71  91 N8        29.92S
GOLDSBORO      CLEAR     72  67  84 SW2       29.95S
WASHINGTON     CLEAR     73  67  81 CALM      29.96S
GREENVILLE     CLEAR     70  68  94 CALM      29.98S
NEW BERN       CLEAR     77  66  68 NW3       29.96S
WILMINGTON     CLEAR     76  67  73 NW8       29.97R
$$

VAZ048-280200-
ELSEWHERE

CITY           SKY/WX    TMP DP  RH WIND       PRES   REMARKS
HARRISBURG PA  MOCLDY    78  72  81 W5        29.90S
BALTIMORE      PTCLDY    78  67  68 CALM      29.91R
ANNAPOLIS        N/A     79  67  66 MISG      29.91R
ANDREWS AFB    CLEAR     78  66  66 W7        29.93R
WILMINGTON DE  CLEAR     79  66  64 S6        29.91R
PHILADELPHIA   PTCLDY    82  66  58 SW10      29.90R
WILDWOOD NJ*   CLEAR     73  64  73 SW6       29.93R
ATLANTIC CITY  CLEAR     74  65  73 SW3       29.91R
HENDERSON NC   CLEAR     69  66  88 CALM      29.99R
GREENSBORO     PTCLDY    76  63  64 CALM      30.01R
ROCKY MOUNT    CLEAR     68  65  90 SW3       29.96S
FAYETTEVILLE   CLEAR     77  64  64 CALM      29.97S
CHARLOTTE      PTCLDY    71  58  63 CALM      30.02S
$$

VAZ100-280200-
MARINE

STATION/POSITION TIME  TEMP    WIND        PRES    WAVE   SWELL
                       AIR SEA DIR/SP/G            HT/PER HT/PER
                 (UTC) (F)     (DEG/KT/KT) (MB)    (FT/S) (FT/S)
44066 TX TWR #4  0100   73 75  180/  4/  6 1012.6F   5/15   5/15
CAPE MAY NJ      0100   74 81  190/  5/  9 1012.4S
LEWES DE         0100   75 78  210/  5/  6 1012.6R
15NM E FENWICK I 0100   74 76              1012.9S   4/10
OCEAN-CITY-INLET 0100   74 77  240/  5/  6 1012.7F
WACHAPREAGUE VA  0100   74 81  230/  1/  4 1013.3F
THOMAS POINT MD  0100   80 79  210/  9/ 10 1014.0R
GOOSES REEF MD   0100   80     210/  6/  6 1013.3F
COVE POINT MD    0100   79     230/  4/  5 1012.9S
SOLOMONS ISLAND  0100      81                N/A
BISHOPS HEAD MD  0100   79 80  230/  4/  4 1012.7R
PINEY POINT MD   0100          240/  3/  6   N/A
POTOMAC MD       0100   81     210/  6/  8 1012.5S
CAMBRIDGE MD     0100   78 78  220/  2/  3 1012.7S
LEWISETTA VA     0100   77 81  240/  4/  5 1013.1R
RAPPAHANNOCK LGT 0100          160/  5/  5 1013.8F
STINGRAY PT      0100   79     210/  4/  4   N/A
YORK RVR RNG VA  0100   77     240/  3/  4 1013.0S
YORKTOWN VA      0100   75 80  210/  1/  2 1013.1F
JAMESTOWN VA     0100   76     110/  2/  2   N/A
DOMINION TERM VA 0100   78     130/  3/  3 1013.6R
KIPTOPEKE VA     0100      81  150/  3/  4   N/A
CHES BAY BRIDGE  0100   76 78  140/  4/  5 1013.0S
CAPE HENRY VA    0100   73     160/  4/  4 1012.2F
CHESAPEAKE LGHT  0000   74     360/  2/  2 1014.3F
WILLOUBY STN VA  0100   76     140/  2/  3 1012.3R
S CRANEY ISL VA  0100          120/  2/  2 1013.2R
CAPE HENRY BUOY  0100      76                N/A     4/12   2/12
1ST LANDING BUOY 0100   76     130/  4/  6 1013.0S
CAPE CHARLES BUO 0100      77                N/A     5/13   5/13
OFFSHORE WE BUOY 0100      75                N/A     5/13   5/13
64NM E OF VA BCH 0100   76 78  360/ 12/ 16 1012.2F   9/13   8/13
DUCK PIER NC     0100   74 77  360/  9/ 10 1012.7F
44056 DUCK FRF   0100                        N/A     6/ 9   3/11
OREGON INLET NC  0100   73 79  350/  9/ 12 1013.3F
HATTERAS NC      0100   77 80  360/ 15/ 18 1013.6R
DIAMOND SHLS NC  0100   75     340/ 19/ 25 1012.2R  10/11   8/11
CAPE LOOKOUT NC  0000   79      20/  7/ 10 1013.4R
$$



USA.gov is the U.S. government's official web portal to all federal, state and local government web resources and services.